FDX357 RPVB-RPVM

Flight info

Callsign FDX357
Flight time N/A
Altitude 13000
Route VIC2A VICTA B473 DELOR DELOR3P
Aircraft B738/M-SDE2E3FGHIRWXY/LB1

Departure

Time 2026-04-30 07:51
Airport Bacolod-Silay International Airport (RPVB)

Arrival

Time N/A
Airport Mactan Cebu International Airport (RPVM)
Time Latitude Longitude Altitude Speed Heading
2026-04-30 07:32 10.77703 123.01599 83 ft 0 kts 300°
2026-04-30 07:45 10.77698 123.01608 83 ft 0 kts 298°
2026-04-30 07:45 10.77697 123.01610 85 ft 0 kts 300°
2026-04-30 07:45 10.77690 123.01624 82 ft 2 kts 297°
2026-04-30 07:46 10.77683 123.01640 83 ft 2 kts 291°
2026-04-30 07:46 10.77679 123.01656 82 ft 2 kts 252°
2026-04-30 07:46 10.77686 123.01665 81 ft 1 kts 209°
2026-04-30 07:48 10.77677 123.01660 81 ft 6 kts 209°
2026-04-30 07:48 10.77600 123.01616 82 ft 19 kts 209°
2026-04-30 07:48 10.77449 123.01528 82 ft 27 kts 209°
2026-04-30 07:48 10.77341 123.01556 83 ft 14 kts 120°
2026-04-30 07:49 10.77280 123.01647 84 ft 17 kts 141°
2026-04-30 07:49 10.77168 123.01624 83 ft 18 kts 202°
2026-04-30 07:49 10.77056 123.01555 87 ft 20 kts 221°
2026-04-30 07:49 10.76941 123.01465 86 ft 21 kts 240°
2026-04-30 07:50 10.76908 123.01444 85 ft 2 kts 162°
2026-04-30 07:50 10.76902 123.01459 85 ft 4 kts 90°
2026-04-30 07:50 10.76909 123.01470 85 ft 2 kts 43°
2026-04-30 07:50 10.77063 123.01563 87 ft 69 kts 30°
2026-04-30 07:51 10.77729 123.01955 100 ft 151 kts 31°
2026-04-30 07:51 10.78716 123.02545 935 ft 165 kts 32°
2026-04-30 07:51 10.79768 123.03171 1947 ft 178 kts 32°
2026-04-30 07:51 10.80941 123.03871 2491 ft 213 kts 32°
2026-04-30 07:52 10.82291 123.04671 2968 ft 231 kts 32°
2026-04-30 07:52 10.83679 123.05486 3702 ft 230 kts 32°
2026-04-30 07:52 10.85088 123.06299 4355 ft 234 kts 29°
2026-04-30 07:52 10.86697 123.06660 4975 ft 244 kts
2026-04-30 07:53 10.88331 123.07063 5566 ft 242 kts 31°
2026-04-30 07:53 10.98313 123.13317 8670 ft 268 kts 41°
2026-04-30 07:53 10.99559 123.18342 10451 ft 265 kts 128°
2026-04-30 07:53 10.96127 123.19419 11500 ft 284 kts 194°
2026-04-30 07:54 10.92865 123.17053 12509 ft 294 kts 215°
2026-04-30 07:54 10.90275 123.16150 12809 ft 282 kts 171°
2026-04-30 07:54 10.88429 123.16783 12882 ft 283 kts 147°
2026-04-30 07:54 10.82010 123.21103 12842 ft 289 kts 144°
2026-04-30 07:55 10.77060 123.24160 12829 ft 284 kts 148°
2026-04-30 07:55 10.75356 123.25109 12852 ft 276 kts 148°
2026-04-30 07:55 10.73747 123.26019 12883 ft 276 kts 148°
2026-04-30 07:55 10.72143 123.26927 12884 ft 279 kts 147°
2026-04-30 07:56 10.70623 123.28134 12873 ft 277 kts 129°
2026-04-30 07:56 10.69443 123.29673 12887 ft 277 kts 126°
2026-04-30 07:56 10.68325 123.31251 12847 ft 274 kts 124°
2026-04-30 07:56 10.67073 123.32710 12701 ft 277 kts 134°
2026-04-30 07:57 10.65751 123.34106 12619 ft 267 kts 120°